Location: *
(42.0175°N, 9.4056°E)
Time: 03:09:09
(UTC+00:00)

Cosmos 1378 Rocket - Pass Details

Date: 25 August 2019
Orbit: 602 x 626 km, 82.5° (Epoch: 16 September)

Event Time Altitude Azimuth Distance (km) Brightness Sun altitude
Rises 19:11:35 0° 359° (N) 2,905 7.4 -11.8°
Reaches altitude 10° 19:13:56 10° 8° (N) 1,998 6.4 -12.2°
Maximum altitude 19:18:05 39° 77° (ENE) 946 4.1 -12.9°
Enters shadow 19:20:46 19° 136° (SE) 1,480 4.9 -13.4°
